Weather History for Cancun, Mexico

Change the Weather History Date:

Tuesday, May 28, 2013

  Actual Average Record
Temperature  
Mean Temperature 78 °F -  
Max Temperature 82 °F 88 °F - ()
Min Temperature 73 °F 75 °F - ()
Cooling Degree Days 12    
Growing Degree Days 28 (Base 50)    
Moisture  
Dew Point 73 °F    
Average Humidity 84    
Maximum Humidity 94    
Minimum Humidity 74    
Precipitation  
Precipitation 0.25 in - - ()
Sea Level Pressure  
Sea Level Pressure 29.95 in    
Wind  
Wind Speed 7 mph ()    
Max Wind Speed 20 mph    
Max Gust Speed -    
Visibility 6.2 miles    
Events Rain    
T = Trace of Precipitation, MM = Missing Value Source: Averaged Metar Reports

Daily Weather History Graph

Daily Weather History Graph

Search for Another Location

Airport:

Trip Planner

Search our weather history database for the weather conditions in past years. The results will help you decide how hot, cold, wet, or windy it might be!

Date:

Astronomy

May. 28, 2013 Rise Set
Actual Time 6:06 AM CDT 7:23 PM CDT
Civil Twilight 5:41 AM CDT 7:48 PM CDT
Nautical Twilight 5:12 AM CDT 8:17 PM CDT
Astronomical Twilight 4:42 AM CDT 8:47 PM CDT
Moon 11:02 PM CDT (5/28) 9:42 AM CDT (5/28)
Length of Visible Light 14h 06m
Length of Day
13h 17m
Waning Gibbous, 82% of the Moon is Illuminated
May 28
Waning Gibbous
May 31
Last Quarter
Jun 8
New
Jun 16
First Quarter
Jun 23
Full

Hourly Weather History & Observations

Time (CDT) Temp. Heat Index Dew Point Humidity Pressure Visibility Wind Dir Wind Speed Gust Speed Precip Events Conditions
12:45 AM 80.6 °F 86.2 °F 75.2 °F 84% 29.94 in 7.0 mi ENE 5.8 mph - N/A   Overcast
1:44 AM 80.6 °F 86.2 °F 75.2 °F 84% 29.95 in 7.0 mi ESE 5.8 mph - N/A   Overcast
2:43 AM 80.6 °F 86.2 °F 75.2 °F 84% 29.95 in 7.0 mi ENE 13.8 mph - N/A   Mostly Cloudy
3:46 AM 80.6 °F 86.2 °F 75.2 °F 84% 29.92 in 7.0 mi ENE 5.8 mph - N/A   Mostly Cloudy
4:45 AM 80.6 °F 85.4 °F 73.4 °F 79% 29.92 in 7.0 mi East 10.4 mph - N/A   Mostly Cloudy
5:44 AM 80.6 °F 86.2 °F 75.2 °F 84% 29.92 in 7.0 mi East 5.8 mph - N/A   Scattered Clouds
6:43 AM 80.6 °F 86.2 °F 75.2 °F 84% 29.95 in 7.0 mi East 5.8 mph - N/A   Mostly Cloudy
7:42 AM 82.4 °F 88.2 °F 73.4 °F 74% 29.96 in 6.0 mi East 9.2 mph - N/A   Overcast
8:45 AM 82.4 °F 89.5 °F 75.2 °F 79% 29.96 in 6.0 mi East 9.2 mph - N/A   Overcast
9:44 AM 82.4 °F 89.5 °F 75.2 °F 79% 29.97 in 6.0 mi ESE 8.1 mph - N/A   Overcast
10:44 AM 80.6 °F 84.6 °F 71.6 °F 74% 29.99 in 6.0 mi SSE 11.5 mph - N/A   Overcast
11:07 AM 73.4 °F - 69.8 °F 88% 30.01 in 2.0 mi SSE 19.6 mph - N/A Rain Rain
11:28 AM 73.4 °F - 69.8 °F 88% 2.99 in 4.0 mi South 15.0 mph - N/A Rain Light Rain
11:43 AM 73.4 °F - 69.8 °F 88% 29.97 in 4.0 mi South 6.9 mph - N/A Rain Light Rain
12:44 PM 73.4 °F - 71.6 °F 94% 29.95 in 6.0 mi NW 4.6 mph - N/A   Overcast
1:44 PM 75.2 °F - 71.6 °F 89% 29.94 in 6.0 mi ENE 3.5 mph - N/A   Overcast
2:48 PM 78.8 °F - 73.4 °F 83% 29.93 in 6.0 mi East 3.5 mph - N/A   Overcast
3:45 PM 80.6 °F 85.4 °F 73.4 °F 79% 29.92 in 6.0 mi SSE 11.5 mph - N/A   Overcast
4:41 PM 80.6 °F 86.2 °F 75.2 °F 84% 29.91 in 6.0 mi SE 13.8 mph - N/A   Overcast
5:46 PM 78.8 °F - 75.2 °F 89% 29.91 in 6.0 mi SSE 6.9 mph - N/A   Overcast
6:41 PM 78.8 °F - 73.4 °F 83% 29.92 in 7.0 mi SE 8.1 mph - N/A   Overcast
7:42 PM 78.8 °F - 73.4 °F 83% 29.95 in 7.0 mi SE 4.6 mph - N/A   Overcast
8:40 PM 78.8 °F - 73.4 °F 83% 29.96 in 7.0 mi SE 8.1 mph - N/A   Overcast
9:45 PM 78.8 °F - 73.4 °F 83% 29.96 in 7.0 mi SE 12.7 mph - N/A   Overcast
10:43 PM 78.8 °F - 73.4 °F 83% 29.96 in 7.0 mi South 8.1 mph - N/A   Overcast
11:44 PM 77.0 °F - 73.4 °F 89% 29.95 in 7.0 mi South 3.5 mph - N/A   Overcast